N1AW TNCM-GOBD

Flight info

Callsign N1AW
Flight time 5h 54m
Altitude 37000
Route ELOPO DCT OTUSU DCT ELJEZ/M080F370 DCT 2150N DCT 2340N DCT 22N036W DCT ERNEK/N0467F370 DCT EVKAS DCT BVT DCT MOGSA DCT PIVSA
Aircraft CL60/M-SBDE1E2E3FGHIJ1J4J5J7M3RWXYZ/LB1V1D1

Departure

Time 2026-04-25 15:11
Airport Princess Juliana International Airport (TNCM)

Arrival

Time 2026-04-25 21:05
Airport Blaise Diagne International Airport (GOBD)
Time Latitude Longitude Altitude Speed Heading
2026-04-25 14:08 18.04103 -63.11858 26 ft 0 kts 192°
2026-04-25 15:02 18.04102 -63.11858 26 ft 1 kts 192°
2026-04-25 15:02 18.04099 -63.11858 25 ft 0 kts 175°
2026-04-25 15:04 18.04077 -63.11867 25 ft 6 kts 227°
2026-04-25 15:05 18.04050 -63.11881 25 ft 0 kts 187°
2026-04-25 15:08 18.04049 -63.11881 25 ft 0 kts 187°
2026-04-25 15:08 18.04034 -63.11891 25 ft 5 kts 232°
2026-04-25 15:08 18.04002 -63.11939 24 ft 8 kts 229°
2026-04-25 15:08 18.03968 -63.11969 24 ft 6 kts 186°
2026-04-25 15:09 18.03940 -63.11948 24 ft 2 kts 77°
2026-04-25 15:10 18.03941 -63.11944 24 ft 8 kts 78°
2026-04-25 15:10 18.03999 -63.11548 22 ft 98 kts 82°
2026-04-25 15:10 18.04199 -63.09388 583 ft 172 kts 106°
2026-04-25 15:11 18.03534 -63.08372 1261 ft 178 kts 147°
2026-04-25 15:11 18.02374 -63.07921 2026 ft 183 kts 165°
2026-04-25 15:11 18.01137 -63.07610 2860 ft 184 kts 166°
2026-04-25 15:12 17.98631 -63.06911 4302 ft 199 kts 165°
2026-04-25 15:12 17.97254 -63.06517 5077 ft 208 kts 165°
2026-04-25 15:12 17.95869 -63.06094 5887 ft 215 kts 161°
2026-04-25 15:12 17.95387 -63.05875 6008 ft 226 kts 152°
2026-04-25 15:13 17.93571 -63.03507 6693 ft 270 kts 123°
2026-04-25 15:13 17.91576 -63.00086 8238 ft 284 kts 123°
2026-04-25 15:13 17.90524 -62.98294 9035 ft 290 kts 123°
2026-04-25 15:14 17.89461 -62.96489 9837 ft 294 kts 123°
2026-04-25 15:14 17.88378 -62.94655 10498 ft 304 kts 124°
2026-04-25 15:14 17.87232 -62.92719 10978 ft 319 kts 124°
2026-04-25 15:14 17.86056 -62.90733 11638 ft 327 kts 124°
2026-04-25 15:15 17.84845 -62.88689 12315 ft 333 kts 124°
2026-04-25 15:15 17.83618 -62.86620 13023 ft 337 kts 124°
2026-04-25 15:15 17.82371 -62.84520 13715 ft 341 kts 124°
2026-04-25 15:15 17.81107 -62.82393 14395 ft 346 kts 124°
2026-04-25 15:16 17.79809 -62.80213 14870 ft 355 kts 124°
2026-04-25 15:16 17.78491 -62.77999 14989 ft 357 kts 124°
2026-04-25 15:16 17.75888 -62.73627 14986 ft 351 kts 124°
2026-04-25 15:17 17.73303 -62.69292 14986 ft 351 kts 124°
2026-04-25 15:17 17.72004 -62.67117 14986 ft 351 kts 124°
2026-04-25 15:17 17.70698 -62.64930 14984 ft 352 kts 124°
2026-04-25 15:18 17.69403 -62.62763 14978 ft 352 kts 124°
2026-04-25 15:18 17.66807 -62.58422 14968 ft 351 kts 124°
2026-04-25 15:18 17.65622 -62.56191 14971 ft 353 kts 114°
2026-04-25 15:19 17.65056 -62.53684 14971 ft 357 kts 95°
2026-04-25 15:19 17.65026 -62.52796 14968 ft 358 kts 91°
2026-04-25 15:19 17.65082 -62.48478 14966 ft 358 kts 91°
2026-04-25 15:19 17.65113 -62.45854 14967 ft 357 kts 91°
2026-04-25 15:20 17.65144 -62.43239 14967 ft 357 kts 91°
2026-04-25 15:20 17.65173 -62.40625 14969 ft 358 kts 91°
2026-04-25 15:20 17.65202 -62.38004 14975 ft 364 kts 90°
2026-04-25 15:20 17.65230 -62.35339 15397 ft 373 kts 90°
2026-04-25 15:21 17.65259 -62.32609 16159 ft 372 kts 91°
2026-04-25 15:21 17.65287 -62.29921 16858 ft 372 kts 91°
2026-04-25 15:21 17.65315 -62.27200 17446 ft 375 kts 91°
2026-04-25 15:21 17.65341 -62.24480 17992 ft 379 kts 91°
2026-04-25 15:22 17.65368 -62.21698 18528 ft 384 kts 91°
2026-04-25 15:22 17.65395 -62.18891 19075 ft 387 kts 91°
2026-04-25 15:22 17.65421 -62.16054 19610 ft 390 kts 91°
2026-04-25 15:22 17.65447 -62.13231 20131 ft 394 kts 91°
2026-04-25 15:23 17.65473 -62.10349 20630 ft 397 kts 91°
2026-04-25 15:23 17.65498 -62.07452 21133 ft 400 kts 91°
2026-04-25 15:23 17.65523 -62.04532 21597 ft 404 kts 91°
2026-04-25 15:23 17.65548 -62.01568 22058 ft 408 kts 91°
2026-04-25 15:24 17.65573 -61.98597 22517 ft 411 kts 91°
2026-04-25 15:24 17.65597 -61.95596 22982 ft 414 kts 91°
2026-04-25 15:24 17.65621 -61.92599 23414 ft 417 kts 91°
2026-04-25 15:24 17.65637 -61.90561 23696 ft 420 kts 92°
2026-04-25 15:25 17.65668 -61.86443 24244 ft 425 kts 92°
2026-04-25 15:25 17.65691 -61.83349 24652 ft 429 kts 92°
2026-04-25 15:25 17.65714 -61.80226 25042 ft 432 kts 92°
2026-04-25 15:25 17.65736 -61.77055 25452 ft 435 kts 92°
2026-04-25 15:26 17.65759 -61.73864 25843 ft 438 kts 91°
2026-04-25 15:26 17.65780 -61.70665 26215 ft 441 kts 91°
2026-04-25 15:26 17.65802 -61.67465 26555 ft 445 kts 91°
2026-04-25 15:26 17.65823 -61.64170 26894 ft 449 kts 92°
2026-04-25 15:27 17.65843 -61.60919 27235 ft 452 kts 92°
2026-04-25 15:27 17.65864 -61.57594 27574 ft 455 kts 91°
2026-04-25 15:27 17.65903 -61.50874 28212 ft 461 kts 91°
2026-04-25 15:28 17.65922 -61.47489 28538 ft 464 kts 91°
2026-04-25 15:28 17.65941 -61.44111 28886 ft 466 kts 91°
2026-04-25 15:28 17.65959 -61.40727 29221 ft 467 kts 92°
2026-04-25 15:28 17.65977 -61.37326 29558 ft 469 kts 92°
2026-04-25 15:29 17.65994 -61.33897 29863 ft 471 kts 92°
2026-04-25 15:29 17.66010 -61.30476 30173 ft 472 kts 92°
2026-04-25 15:29 17.66026 -61.27033 30459 ft 474 kts 92°
2026-04-25 15:29 17.66041 -61.23581 30721 ft 476 kts 93°
2026-04-25 15:30 17.66055 -61.20118 30986 ft 478 kts 93°
2026-04-25 15:30 17.66070 -61.16626 31231 ft 480 kts 93°
2026-04-25 15:30 17.66083 -61.13133 31479 ft 481 kts 93°
2026-04-25 15:30 17.66096 -61.09609 31700 ft 484 kts 94°
2026-04-25 15:31 17.66108 -61.06126 31929 ft 485 kts 94°
2026-04-25 15:31 17.66120 -61.02569 32129 ft 487 kts 94°
2026-04-25 15:31 17.66131 -60.99005 32364 ft 488 kts 94°
2026-04-25 15:31 17.66142 -60.95402 32559 ft 490 kts 94°
2026-04-25 15:32 17.66152 -60.91831 32772 ft 491 kts 94°
2026-04-25 15:32 17.66161 -60.88256 33025 ft 491 kts 94°
2026-04-25 15:32 17.66170 -60.84680 33264 ft 492 kts 94°
2026-04-25 15:33 17.66186 -60.77512 33633 ft 495 kts 94°
2026-04-25 15:33 17.66193 -60.73915 33866 ft 495 kts 94°
2026-04-25 15:33 17.66199 -60.70313 34159 ft 494 kts 94°
2026-04-25 15:33 17.66205 -60.66760 34424 ft 493 kts 94°
2026-04-25 15:34 17.66210 -60.63147 34690 ft 492 kts 94°
2026-04-25 15:34 17.66215 -60.59591 34973 ft 490 kts 94°
2026-04-25 15:34 17.66219 -60.56026 35195 ft 490 kts 94°
2026-04-25 15:34 17.66220 -60.54811 35268 ft 490 kts 94°
2026-04-25 15:35 17.66225 -60.45334 35802 ft 490 kts 94°
2026-04-25 15:35 17.66226 -60.41746 36015 ft 489 kts 94°
2026-04-25 15:35 17.66226 -60.38203 36169 ft 490 kts 94°
2026-04-25 15:36 17.66225 -60.31121 36519 ft 489 kts 94°
2026-04-25 15:36 17.66223 -60.27565 36650 ft 489 kts 94°
2026-04-25 15:36 17.66221 -60.23979 36767 ft 489 kts 94°
2026-04-25 15:37 17.66218 -60.20431 36924 ft 489 kts 94°
2026-04-25 15:37 17.66214 -60.16893 36993 ft 490 kts 94°
2026-04-25 15:37 17.66203 -60.09720 36988 ft 495 kts 94°
2026-04-25 15:38 17.66191 -60.02449 36984 ft 500 kts 94°
2026-04-25 15:38 17.66176 -59.95146 36986 ft 504 kts 94°
2026-04-25 15:39 17.66158 -59.87806 36988 ft 507 kts 94°
2026-04-25 15:39 17.66138 -59.80422 36991 ft 508 kts 94°
2026-04-25 15:40 17.66123 -59.75483 36989 ft 508 kts 93°
2026-04-25 15:40 17.66090 -59.65615 36985 ft 508 kts 93°
2026-04-25 15:41 17.66061 -59.58257 36992 ft 507 kts 94°
2026-04-25 15:41 17.66030 -59.50905 36990 ft 507 kts 94°
2026-04-25 15:42 17.65996 -59.43523 36990 ft 506 kts 94°
2026-04-25 15:42 17.65959 -59.36134 36992 ft 506 kts 94°
2026-04-25 15:43 17.65920 -59.28793 36995 ft 506 kts 94°
2026-04-25 15:43 17.65878 -59.21439 36996 ft 505 kts 94°
2026-04-25 15:44 17.65833 -59.14081 37003 ft 505 kts 94°
2026-04-25 15:44 17.65785 -59.06729 37001 ft 506 kts 94°
2026-04-25 15:45 17.65735 -58.99371 37008 ft 506 kts 94°
2026-04-25 15:45 17.65700 -58.94449 37011 ft 506 kts 94°
2026-04-25 15:46 17.65626 -58.84616 37009 ft 506 kts 94°
2026-04-25 15:46 17.65567 -58.77261 37007 ft 506 kts 94°
2026-04-25 15:47 17.65506 -58.69898 37006 ft 505 kts 94°
2026-04-25 15:47 17.65443 -58.62592 37006 ft 505 kts 94°
2026-04-25 15:48 17.65376 -58.55204 37007 ft 505 kts 94°
2026-04-25 15:48 17.65307 -58.47875 37006 ft 505 kts 94°
2026-04-25 15:49 17.65235 -58.40540 37007 ft 505 kts 94°
2026-04-25 15:49 17.65160 -58.33212 37001 ft 504 kts 94°
2026-04-25 15:50 17.65083 -58.25872 36998 ft 504 kts 94°
2026-04-25 15:50 17.65002 -58.18497 37000 ft 504 kts 94°
2026-04-25 15:51 17.64934 -58.12391 37002 ft 504 kts 94°
2026-04-25 15:51 17.64834 -58.03851 37001 ft 504 kts 94°
2026-04-25 15:52 17.64746 -57.96485 36996 ft 504 kts 94°
2026-04-25 15:52 17.64655 -57.89144 36992 ft 504 kts 94°
2026-04-25 15:53 17.64561 -57.81771 36991 ft 504 kts 94°
2026-04-25 15:53 17.64465 -57.74440 36994 ft 503 kts 94°
2026-04-25 15:54 17.64366 -57.67147 36994 ft 503 kts 94°
2026-04-25 15:54 17.64288 -57.59803 36995 ft 504 kts 91°
2026-04-25 15:55 17.65132 -57.52533 36994 ft 508 kts 78°
2026-04-25 15:55 17.67425 -57.45535 36990 ft 511 kts 65°
2026-04-25 15:56 17.71095 -57.39161 36986 ft 511 kts 52°
2026-04-25 15:56 17.75445 -57.33273 36986 ft 510 kts 52°
2026-04-25 15:57 17.79806 -57.27373 36989 ft 510 kts 52°
2026-04-25 15:57 17.84149 -57.21492 36992 ft 510 kts 52°
2026-04-25 15:58 17.88495 -57.15602 36990 ft 511 kts 51°
2026-04-25 15:58 17.92870 -57.09668 36989 ft 511 kts 51°
2026-04-25 15:59 17.97210 -57.03776 36988 ft 512 kts 51°
2026-04-25 15:59 18.01137 -56.97491 36990 ft 512 kts 64°
2026-04-25 16:00 18.03189 -56.92994 36987 ft 513 kts 65°
2026-04-25 16:00 18.07280 -56.83982 36994 ft 513 kts 65°
2026-04-25 16:01 18.10353 -56.77210 36997 ft 513 kts 65°
2026-04-25 16:01 18.13415 -56.70453 36998 ft 513 kts 65°
2026-04-25 16:02 18.16471 -56.63703 36998 ft 513 kts 65°
2026-04-25 16:02 18.19522 -56.56957 36999 ft 512 kts 65°
2026-04-25 16:03 18.22591 -56.50164 37010 ft 512 kts 65°
2026-04-25 16:03 18.25625 -56.43441 37011 ft 513 kts 64°
2026-04-25 16:04 18.28683 -56.36657 37008 ft 513 kts 65°
2026-04-25 16:04 18.31735 -56.29881 37012 ft 513 kts 65°
2026-04-25 16:05 18.34789 -56.23093 37010 ft 513 kts 65°
2026-04-25 16:06 18.39358 -56.12922 37011 ft 514 kts 65°
2026-04-25 16:06 18.42402 -56.06137 37009 ft 514 kts 65°
2026-04-25 16:07 18.45439 -55.99359 37010 ft 513 kts 65°
2026-04-25 16:07 18.48469 -55.92590 37010 ft 513 kts 65°
2026-04-25 16:08 18.51520 -55.85765 37009 ft 513 kts 65°
2026-04-25 16:08 18.54536 -55.79011 37010 ft 514 kts 65°
2026-04-25 16:09 18.57606 -55.72127 37008 ft 514 kts 65°
2026-04-25 16:09 18.60630 -55.65341 37011 ft 514 kts 65°
2026-04-25 16:10 18.63664 -55.58524 37011 ft 514 kts 65°
2026-04-25 16:10 18.66701 -55.51692 37009 ft 514 kts 65°
2026-04-25 16:11 18.69719 -55.44895 37007 ft 514 kts 65°
2026-04-25 16:11 18.72747 -55.38066 37014 ft 514 kts 65°
2026-04-25 16:12 18.75773 -55.31236 37011 ft 514 kts 65°
2026-04-25 16:12 18.78791 -55.24415 37012 ft 514 kts 65°
2026-04-25 16:13 18.81807 -55.17590 37012 ft 514 kts 65°
2026-04-25 16:13 18.84819 -55.10766 37011 ft 515 kts 65°
2026-04-25 16:14 18.87841 -55.03912 37011 ft 515 kts 65°
2026-04-25 16:14 18.90850 -54.97080 37011 ft 515 kts 65°
2026-04-25 16:15 18.93863 -54.90229 37010 ft 515 kts 64°
2026-04-25 16:15 18.96861 -54.83405 37015 ft 514 kts 64°
2026-04-25 16:16 18.99868 -54.76555 37017 ft 514 kts 65°
2026-04-25 16:16 19.02879 -54.69684 37014 ft 514 kts 65°
2026-04-25 16:17 19.05872 -54.62848 37014 ft 514 kts 64°
2026-04-25 16:17 19.08867 -54.55996 37022 ft 514 kts 64°
2026-04-25 16:18 19.11854 -54.49157 37017 ft 514 kts 65°
2026-04-25 16:18 19.14854 -54.42281 37022 ft 514 kts 64°
2026-04-25 16:19 19.17833 -54.35442 37024 ft 515 kts 65°
2026-04-25 16:19 19.20829 -54.28557 37024 ft 514 kts 65°
2026-04-25 16:20 19.25304 -54.18259 37030 ft 515 kts 65°
2026-04-25 16:21 19.29784 -54.07927 37031 ft 515 kts 65°
2026-04-25 16:21 19.32782 -54.01006 37029 ft 516 kts 65°
2026-04-25 16:22 19.35762 -53.94115 37031 ft 516 kts 65°
2026-04-25 16:22 19.38744 -53.87212 37031 ft 516 kts 65°
2026-04-25 16:23 19.41709 -53.80338 37032 ft 516 kts 65°
2026-04-25 16:23 19.44703 -53.73391 37032 ft 516 kts 64°
2026-04-25 16:24 19.47666 -53.66507 37032 ft 517 kts 65°
2026-04-25 16:24 19.50652 -53.59561 37032 ft 517 kts 65°
2026-04-25 16:25 19.53624 -53.52639 37031 ft 517 kts 64°
2026-04-25 16:25 19.56582 -53.45739 37033 ft 517 kts 64°
2026-04-25 16:26 19.59564 -53.38777 37031 ft 517 kts 65°
2026-04-25 16:26 19.62530 -53.31841 37031 ft 517 kts 65°
2026-04-25 16:27 19.65500 -53.24889 37031 ft 517 kts 65°
2026-04-25 16:27 19.68448 -53.17979 37032 ft 518 kts 65°
2026-04-25 16:28 19.71416 -53.11014 37033 ft 518 kts 65°
2026-04-25 16:28 19.74376 -53.04055 37034 ft 518 kts 65°
2026-04-25 16:29 19.77342 -52.97077 37036 ft 519 kts 65°
2026-04-25 16:29 19.80300 -52.90108 37031 ft 518 kts 65°
2026-04-25 16:30 19.83262 -52.83122 37028 ft 518 kts 65°
2026-04-25 16:30 19.86202 -52.76176 37032 ft 518 kts 65°
2026-04-25 16:31 19.89144 -52.69219 37033 ft 518 kts 65°
2026-04-25 16:31 19.92097 -52.62223 37031 ft 518 kts 65°
2026-04-25 16:32 19.95035 -52.55259 37029 ft 519 kts 65°
2026-04-25 16:32 19.97986 -52.48252 37031 ft 519 kts 65°
2026-04-25 16:33 20.00924 -52.41264 37031 ft 519 kts 64°
2026-04-25 16:33 20.03876 -52.34237 37031 ft 519 kts 65°
2026-04-25 16:34 20.06811 -52.27242 37032 ft 519 kts 65°
2026-04-25 16:34 20.09752 -52.20223 37031 ft 520 kts 65°
2026-04-25 16:35 20.12684 -52.13215 37032 ft 520 kts 65°
2026-04-25 16:35 20.15623 -52.06180 37031 ft 519 kts 65°
2026-04-25 16:36 20.18555 -51.99155 37031 ft 519 kts 65°
2026-04-25 16:36 20.21485 -51.92123 37031 ft 519 kts 65°
2026-04-25 16:37 20.24392 -51.85138 37031 ft 519 kts 65°
2026-04-25 16:37 20.27328 -51.78075 37032 ft 520 kts 65°
2026-04-25 16:38 20.30232 -51.71080 37031 ft 520 kts 65°
2026-04-25 16:38 20.33144 -51.64054 37031 ft 520 kts 65°
2026-04-25 16:39 20.36072 -51.56981 37030 ft 521 kts 65°
2026-04-25 16:39 20.38977 -51.49952 37032 ft 521 kts 64°
2026-04-25 16:40 20.41890 -51.42897 37031 ft 520 kts 64°
2026-04-25 16:40 20.44792 -51.35858 37031 ft 520 kts 64°
2026-04-25 16:41 20.47702 -51.28790 37031 ft 520 kts 65°
2026-04-25 16:41 20.52053 -51.18204 37032 ft 520 kts 65°
2026-04-25 16:42 20.54952 -51.11139 37030 ft 521 kts 65°
2026-04-25 16:42 20.57854 -51.04058 37031 ft 521 kts 65°
2026-04-25 16:43 20.60747 -50.96989 37032 ft 521 kts 65°
2026-04-25 16:43 20.63633 -50.89925 37033 ft 522 kts 65°
2026-04-25 16:44 20.66541 -50.82798 37031 ft 522 kts 65°
2026-04-25 16:44 20.69420 -50.75731 37034 ft 522 kts 65°
2026-04-25 16:45 20.72304 -50.68645 37032 ft 522 kts 65°
2026-04-25 16:45 20.75201 -50.61515 37032 ft 522 kts 65°
2026-04-25 16:46 20.78081 -50.54417 37032 ft 522 kts 65°
2026-04-25 16:46 20.80003 -50.49674 37033 ft 523 kts 65°
2026-04-25 16:47 20.83844 -50.40183 37041 ft 523 kts 64°
2026-04-25 16:47 20.86715 -50.33077 37043 ft 523 kts 65°
2026-04-25 16:48 20.89588 -50.25956 37043 ft 523 kts 65°
2026-04-25 16:48 20.92464 -50.18817 37045 ft 523 kts 65°
2026-04-25 16:49 20.95355 -50.11631 37049 ft 524 kts 65°
2026-04-25 16:49 20.98226 -50.04484 37053 ft 525 kts 65°
2026-04-25 16:50 21.00706 -49.97130 37055 ft 527 kts 75°
2026-04-25 16:50 21.02458 -49.89566 37054 ft 527 kts 75°
2026-04-25 16:51 21.04222 -49.81957 37055 ft 527 kts 75°
2026-04-25 16:51 21.05403 -49.76853 37059 ft 527 kts 75°
2026-04-25 16:52 21.07737 -49.66753 37057 ft 526 kts 75°
2026-04-25 16:52 21.09488 -49.59158 37054 ft 526 kts 75°
2026-04-25 16:53 21.12105 -49.47772 37062 ft 525 kts 75°
2026-04-25 16:54 21.13838 -49.40216 37057 ft 525 kts 75°
2026-04-25 16:54 21.15571 -49.32642 37052 ft 525 kts 76°
2026-04-25 16:55 21.17304 -49.25052 37053 ft 525 kts 76°
2026-04-25 16:55 21.19037 -49.17446 37056 ft 525 kts 76°
2026-04-25 16:56 21.20757 -49.09882 37057 ft 525 kts 76°
2026-04-25 16:56 21.22473 -49.02316 37060 ft 525 kts 76°
2026-04-25 16:57 21.24200 -48.94688 37057 ft 525 kts 76°
2026-04-25 16:57 21.25909 -48.87125 37058 ft 525 kts 75°
2026-04-25 16:58 21.27622 -48.79523 37062 ft 526 kts 75°
2026-04-25 16:58 21.29335 -48.71906 37062 ft 526 kts 75°
2026-04-25 16:59 21.31039 -48.64311 37062 ft 526 kts 75°
2026-04-25 16:59 21.32738 -48.56723 37066 ft 525 kts 75°
2026-04-25 17:00 21.34444 -48.49085 37065 ft 525 kts 75°
2026-04-25 17:00 21.36131 -48.41519 37068 ft 525 kts 75°
2026-04-25 17:01 21.37825 -48.33901 37069 ft 525 kts 76°
2026-04-25 17:01 21.39510 -48.26303 37069 ft 525 kts 76°
2026-04-25 17:02 21.41197 -48.18684 37068 ft 525 kts 76°
2026-04-25 17:02 21.42872 -48.11099 37069 ft 525 kts 75°
2026-04-25 17:03 21.44554 -48.03468 37072 ft 524 kts 75°
2026-04-25 17:03 21.46220 -47.95888 37074 ft 524 kts 75°
2026-04-25 17:04 21.47897 -47.88242 37073 ft 524 kts 76°
2026-04-25 17:04 21.49550 -47.80691 37072 ft 524 kts 75°
2026-04-25 17:05 21.51213 -47.73075 37072 ft 524 kts 75°
2026-04-25 17:05 21.53702 -47.61640 37074 ft 525 kts 75°
2026-04-25 17:06 21.55364 -47.53984 37073 ft 525 kts 75°
2026-04-25 17:06 21.57004 -47.46413 37072 ft 525 kts 75°
2026-04-25 17:07 21.58660 -47.38748 37070 ft 525 kts 75°
2026-04-25 17:07 21.60296 -47.31160 37070 ft 525 kts 75°
2026-04-25 17:08 21.61942 -47.23506 37071 ft 526 kts 75°
2026-04-25 17:08 21.63585 -47.15850 37071 ft 526 kts 75°
2026-04-25 17:09 21.65224 -47.08196 37074 ft 526 kts 75°
2026-04-25 17:09 21.66854 -47.00563 37072 ft 526 kts 75°
2026-04-25 17:10 21.68476 -46.92947 37073 ft 525 kts 75°
2026-04-25 17:10 21.70102 -46.85299 37072 ft 525 kts 75°
2026-04-25 17:11 21.71722 -46.77660 37073 ft 525 kts 75°
2026-04-25 17:11 21.73336 -46.70028 37071 ft 526 kts 75°
2026-04-25 17:12 21.74953 -46.62367 37073 ft 526 kts 75°
2026-04-25 17:12 21.76570 -46.54686 37074 ft 526 kts 75°
2026-04-25 17:13 21.77641 -46.49587 37071 ft 526 kts 75°
2026-04-25 17:13 21.79788 -46.39346 37074 ft 525 kts 75°
2026-04-25 17:14 21.81382 -46.31718 37074 ft 525 kts 75°
2026-04-25 17:14 21.82976 -46.24072 37074 ft 524 kts 75°
2026-04-25 17:15 21.84570 -46.16406 37076 ft 525 kts 75°
2026-04-25 17:15 21.86157 -46.08759 37076 ft 525 kts 75°
2026-04-25 17:16 21.87744 -46.01091 37075 ft 526 kts 75°
2026-04-25 17:16 21.89325 -45.93432 37074 ft 526 kts 75°
2026-04-25 17:17 21.90902 -45.85777 37074 ft 525 kts 75°
2026-04-25 17:17 21.92473 -45.78129 37071 ft 525 kts 75°
2026-04-25 17:18 21.94047 -45.70446 37072 ft 525 kts 75°
2026-04-25 17:18 21.95616 -45.62774 37075 ft 525 kts 75°
2026-04-25 17:19 21.97174 -45.55134 37073 ft 526 kts 75°
2026-04-25 17:19 21.98742 -45.47427 37071 ft 526 kts 75°
2026-04-25 17:20 22.00300 -45.39749 37073 ft 526 kts 75°
2026-04-25 17:20 22.01848 -45.32100 37075 ft 525 kts 75°
2026-04-25 17:21 22.03401 -45.24411 37073 ft 525 kts 75°
2026-04-25 17:21 22.04951 -45.16713 37072 ft 525 kts 76°
2026-04-25 17:22 22.06233 -45.10334 37073 ft 526 kts 75°
2026-04-25 17:22 22.08029 -45.01374 37074 ft 526 kts 75°
2026-04-25 17:23 22.09568 -44.93671 37073 ft 526 kts 75°
2026-04-25 17:23 22.11108 -44.85949 37073 ft 526 kts 75°
2026-04-25 17:24 22.12640 -44.78244 37073 ft 527 kts 75°
2026-04-25 17:24 22.14168 -44.70539 37072 ft 527 kts 75°
2026-04-25 17:25 22.15688 -44.62855 37073 ft 527 kts 75°
2026-04-25 17:25 22.17209 -44.55148 37071 ft 527 kts 75°
2026-04-25 17:26 22.18732 -44.47407 37072 ft 527 kts 75°
2026-04-25 17:26 22.20242 -44.39714 37075 ft 527 kts 75°
2026-04-25 17:27 22.21758 -44.31974 37074 ft 526 kts 76°
2026-04-25 17:27 22.22756 -44.26864 37071 ft 526 kts 76°
2026-04-25 17:28 22.24765 -44.16555 37074 ft 526 kts 75°
2026-04-25 17:28 22.26267 -44.08820 37072 ft 527 kts 75°
2026-04-25 17:29 22.27764 -44.01096 37071 ft 527 kts 75°
2026-04-25 17:29 22.29261 -43.93351 37071 ft 527 kts 75°
2026-04-25 17:30 22.30745 -43.85648 37072 ft 527 kts 76°
2026-04-25 17:30 22.32236 -43.77896 37073 ft 527 kts 75°
2026-04-25 17:31 22.33710 -43.70204 37076 ft 527 kts 75°
2026-04-25 17:31 22.35193 -43.62451 37074 ft 526 kts 75°
2026-04-25 17:32 22.36665 -43.54728 37072 ft 527 kts 75°
2026-04-25 17:32 22.38133 -43.47010 37073 ft 527 kts 75°
2026-04-25 17:33 22.39604 -43.39255 37072 ft 527 kts 75°
2026-04-25 17:33 22.41065 -43.31530 37075 ft 526 kts 76°
2026-04-25 17:34 22.42527 -43.23781 37075 ft 526 kts 76°
2026-04-25 17:34 22.43982 -43.16050 37072 ft 526 kts 76°
2026-04-25 17:35 22.45434 -43.08308 37075 ft 527 kts 75°
2026-04-25 17:35 22.46885 -43.00554 37074 ft 527 kts 76°
2026-04-25 17:36 22.48323 -42.92847 37076 ft 527 kts 75°
2026-04-25 17:36 22.49772 -42.85058 37075 ft 527 kts 76°
2026-04-25 17:37 22.51214 -42.77291 37074 ft 527 kts 76°
2026-04-25 17:37 22.52647 -42.69541 37075 ft 527 kts 75°
2026-04-25 17:38 22.53600 -42.64383 37080 ft 527 kts 76°
2026-04-25 17:38 22.55505 -42.54034 37082 ft 526 kts 76°
2026-04-25 17:39 22.56924 -42.46295 37082 ft 526 kts 75°
2026-04-25 17:39 22.58341 -42.38550 37084 ft 526 kts 75°
2026-04-25 17:40 22.59753 -42.30814 37089 ft 525 kts 76°
2026-04-25 17:40 22.61165 -42.23051 37089 ft 526 kts 76°
2026-04-25 17:41 22.62565 -42.15333 37088 ft 526 kts 76°
2026-04-25 17:41 22.63974 -42.07547 37091 ft 527 kts 76°
2026-04-25 17:42 22.65378 -41.99761 37091 ft 527 kts 76°
2026-04-25 17:42 22.66779 -41.91971 37092 ft 527 kts 76°
2026-04-25 17:43 22.68172 -41.84201 37093 ft 527 kts 76°
2026-04-25 17:43 22.69562 -41.76427 37093 ft 527 kts 75°
2026-04-25 17:44 22.70949 -41.68648 37095 ft 527 kts 75°
2026-04-25 17:44 22.72332 -41.60866 37095 ft 527 kts 76°
2026-04-25 17:45 22.73259 -41.55642 37092 ft 527 kts 76°
2026-04-25 17:45 22.75089 -41.45291 37093 ft 527 kts 75°
2026-04-25 17:46 22.76456 -41.37528 37095 ft 527 kts 75°
2026-04-25 17:46 22.77824 -41.29736 37091 ft 526 kts 76°
2026-04-25 17:47 22.79194 -41.21917 37090 ft 527 kts 76°
2026-04-25 17:47 22.80556 -41.14123 37091 ft 528 kts 76°
2026-04-25 17:48 22.82594 -41.02408 37091 ft 529 kts 75°
2026-04-25 17:49 22.83947 -40.94602 37094 ft 529 kts 75°
2026-04-25 17:49 22.85295 -40.86798 37094 ft 529 kts 76°
2026-04-25 17:50 22.86647 -40.78952 37093 ft 529 kts 76°
2026-04-25 17:50 22.87993 -40.71114 37094 ft 530 kts 76°
2026-04-25 17:51 22.89335 -40.63278 37094 ft 530 kts 76°
2026-04-25 17:51 22.90673 -40.55443 37092 ft 530 kts 75°
2026-04-25 17:52 22.92014 -40.47561 37090 ft 530 kts 75°
2026-04-25 17:52 22.93348 -40.39698 37090 ft 530 kts 75°
2026-04-25 17:53 22.94678 -40.31833 37092 ft 530 kts 75°
2026-04-25 17:53 22.95997 -40.24012 37094 ft 530 kts 76°
2026-04-25 17:54 22.97328 -40.16096 37093 ft 531 kts 76°
2026-04-25 17:54 22.98644 -40.08214 37093 ft 532 kts 77°
2026-04-25 17:55 22.99169 -40.00189 37094 ft 538 kts 90°
2026-04-25 17:55 22.98143 -39.92141 37094 ft 541 kts 103°
2026-04-25 17:56 22.96282 -39.84240 37093 ft 541 kts 104°
2026-04-25 17:56 22.94411 -39.76336 37093 ft 541 kts 104°
2026-04-25 17:57 22.92539 -39.68451 37092 ft 541 kts 104°
2026-04-25 17:57 22.90667 -39.60592 37091 ft 542 kts 104°
2026-04-25 17:58 22.88781 -39.52694 37091 ft 542 kts 104°
2026-04-25 17:58 22.86894 -39.44809 37092 ft 542 kts 104°
2026-04-25 17:59 22.85006 -39.36939 37093 ft 541 kts 103°
2026-04-25 17:59 22.83101 -39.29022 37095 ft 540 kts 104°
2026-04-25 18:00 22.81216 -39.21202 37094 ft 540 kts 104°
2026-04-25 18:00 22.79309 -39.13314 37093 ft 540 kts 104°
2026-04-25 18:01 22.77400 -39.05436 37093 ft 540 kts 104°
2026-04-25 18:01 22.75480 -38.97528 37094 ft 540 kts 104°
2026-04-25 18:02 22.73577 -38.89714 37093 ft 539 kts 104°
2026-04-25 18:02 22.71670 -38.81896 37092 ft 539 kts 104°
2026-04-25 18:03 22.69745 -38.74025 37092 ft 540 kts 104°
2026-04-25 18:03 22.67826 -38.66198 37100 ft 540 kts 104°
2026-04-25 18:04 22.65896 -38.58340 37097 ft 541 kts 104°
2026-04-25 18:04 22.63968 -38.50511 37099 ft 540 kts 104°
2026-04-25 18:05 22.62026 -38.42643 37099 ft 540 kts 104°
2026-04-25 18:05 22.60098 -38.34847 37102 ft 541 kts 104°
2026-04-25 18:06 22.58141 -38.26953 37103 ft 541 kts 105°
2026-04-25 18:06 22.56198 -38.19135 37101 ft 541 kts 104°
2026-04-25 18:07 22.54245 -38.11292 37096 ft 541 kts 104°
2026-04-25 18:07 22.52294 -38.03478 37091 ft 540 kts 104°
2026-04-25 18:08 22.50335 -37.95645 37091 ft 540 kts 104°
2026-04-25 18:08 22.48380 -37.87847 37092 ft 539 kts 104°
2026-04-25 18:09 22.46420 -37.80048 37093 ft 539 kts 104°
2026-04-25 18:09 22.44453 -37.72238 37092 ft 539 kts 104°
2026-04-25 18:10 22.42491 -37.64465 37093 ft 539 kts 104°
2026-04-25 18:10 22.40509 -37.56627 37094 ft 540 kts 104°
2026-04-25 18:11 22.38526 -37.48804 37094 ft 541 kts 104°
2026-04-25 18:11 22.36539 -37.40985 37094 ft 541 kts 104°
2026-04-25 18:12 22.34549 -37.33167 37092 ft 540 kts 104°
2026-04-25 18:12 22.32563 -37.25383 37094 ft 540 kts 104°
2026-04-25 18:13 22.30560 -37.17550 37091 ft 542 kts 104°
2026-04-25 18:13 22.28551 -37.09710 37091 ft 542 kts 104°
2026-04-25 18:14 22.25535 -36.97972 37090 ft 543 kts 104°
2026-04-25 18:14 22.23513 -36.90123 37093 ft 543 kts 104°
2026-04-25 18:15 22.21498 -36.82319 37095 ft 543 kts 105°
2026-04-25 18:15 22.19477 -36.74509 37095 ft 543 kts 105°
2026-04-25 18:16 22.17445 -36.66673 37094 ft 543 kts 104°
2026-04-25 18:17 22.14387 -36.54908 37093 ft 542 kts 105°
2026-04-25 18:17 22.12358 -36.47125 37092 ft 542 kts 105°
2026-04-25 18:18 22.10321 -36.39324 37091 ft 542 kts 105°
2026-04-25 18:18 22.08276 -36.31512 37094 ft 541 kts 105°
2026-04-25 18:19 22.06230 -36.23712 37094 ft 540 kts 105°
2026-04-25 18:19 22.04193 -36.15961 37095 ft 541 kts 105°
2026-04-25 18:20 22.02143 -36.08176 37093 ft 541 kts 105°
2026-04-25 18:20 22.00079 -36.00395 37094 ft 541 kts 107°
2026-04-25 18:21 21.97484 -35.92766 37092 ft 541 kts 111°
2026-04-25 18:21 21.94811 -35.85195 37093 ft 541 kts 110°
2026-04-25 18:22 21.92154 -35.77673 37091 ft 542 kts 111°
2026-04-25 18:22 21.89467 -35.70071 37092 ft 542 kts 110°
2026-04-25 18:23 21.86790 -35.62508 37091 ft 542 kts 110°
2026-04-25 18:23 21.84107 -35.54938 37090 ft 542 kts 111°
2026-04-25 18:24 21.81420 -35.47366 37088 ft 542 kts 110°
2026-04-25 18:24 21.78733 -35.39803 37091 ft 541 kts 110°
2026-04-25 18:25 21.76053 -35.32273 37088 ft 541 kts 111°
2026-04-25 18:25 21.73353 -35.24698 37089 ft 541 kts 111°
2026-04-25 18:26 21.70654 -35.17138 37089 ft 542 kts 111°
2026-04-25 18:26 21.67950 -35.09576 37087 ft 542 kts 111°
2026-04-25 18:27 21.65245 -35.02021 37087 ft 542 kts 111°
2026-04-25 18:27 21.62535 -34.94466 37086 ft 542 kts 111°
2026-04-25 18:28 21.59847 -34.86982 37086 ft 542 kts 111°
2026-04-25 18:28 21.57132 -34.79436 37083 ft 542 kts 111°
2026-04-25 18:29 21.53058 -34.68138 37084 ft 541 kts 111°
2026-04-25 18:30 21.47624 -34.53107 37081 ft 541 kts 111°
2026-04-25 18:30 21.44897 -34.45581 37084 ft 541 kts 111°
2026-04-25 18:31 21.42159 -34.38039 37084 ft 542 kts 111°
2026-04-25 18:31 21.39437 -34.30549 37084 ft 541 kts 111°
2026-04-25 18:32 21.36695 -34.23019 37083 ft 541 kts 111°
2026-04-25 18:32 21.33957 -34.15513 37080 ft 541 kts 111°
2026-04-25 18:33 21.31226 -34.08036 37079 ft 541 kts 111°
2026-04-25 18:33 21.28540 -34.00692 37080 ft 541 kts 111°
2026-04-25 18:34 21.25798 -33.93210 37077 ft 540 kts 111°
2026-04-25 18:34 21.23027 -33.85659 37077 ft 540 kts 111°
2026-04-25 18:35 21.20276 -33.78176 37075 ft 540 kts 111°
2026-04-25 18:35 21.17529 -33.70713 37075 ft 541 kts 111°
2026-04-25 18:36 21.14767 -33.63221 37078 ft 540 kts 111°
2026-04-25 18:36 21.12013 -33.55765 37073 ft 540 kts 111°
2026-04-25 18:37 21.09255 -33.48306 37074 ft 540 kts 111°
2026-04-25 18:37 21.06502 -33.40874 37068 ft 540 kts 111°
2026-04-25 18:38 21.03726 -33.33392 37072 ft 540 kts 112°
2026-04-25 18:38 21.00956 -33.25937 37073 ft 540 kts 112°
2026-04-25 18:39 20.98190 -33.18502 37073 ft 540 kts 111°
2026-04-25 18:39 20.95401 -33.11018 37071 ft 540 kts 112°
2026-04-25 18:40 20.92638 -33.03616 37072 ft 539 kts 111°
2026-04-25 18:40 20.89859 -32.96180 37073 ft 539 kts 111°
2026-04-25 18:41 20.87069 -32.88726 37073 ft 539 kts 111°
2026-04-25 18:41 20.84292 -32.81319 37073 ft 540 kts 111°
2026-04-25 18:42 20.82429 -32.76358 37073 ft 540 kts 112°
2026-04-25 18:42 20.78705 -32.66452 37070 ft 539 kts 112°
2026-04-25 18:43 20.75895 -32.58991 37072 ft 539 kts 112°
2026-04-25 18:43 20.73110 -32.51607 37071 ft 539 kts 112°
2026-04-25 18:44 20.70301 -32.44172 37070 ft 539 kts 112°
2026-04-25 18:44 20.67506 -32.36783 37066 ft 539 kts 111°
2026-04-25 18:45 20.64689 -32.29349 37067 ft 538 kts 112°
2026-04-25 18:45 20.61894 -32.21984 37067 ft 538 kts 112°
2026-04-25 18:46 20.59078 -32.14573 37068 ft 538 kts 112°
2026-04-25 18:46 20.56260 -32.07169 37067 ft 538 kts 112°
2026-04-25 18:47 20.53445 -31.99784 37063 ft 538 kts 112°
2026-04-25 18:47 20.50624 -31.92394 37064 ft 538 kts 112°
2026-04-25 18:48 20.47825 -31.85073 37060 ft 538 kts 112°
2026-04-25 18:48 20.44993 -31.77675 37060 ft 537 kts 112°
2026-04-25 18:49 20.42102 -31.70320 37060 ft 537 kts 115°
2026-04-25 18:49 20.38923 -31.63079 37061 ft 537 kts 115°
2026-04-25 18:50 20.35749 -31.55858 37059 ft 537 kts 115°
2026-04-25 18:50 20.32597 -31.48696 37060 ft 537 kts 115°
2026-04-25 18:51 20.29950 -31.42685 37060 ft 537 kts 115°
2026-04-25 18:51 20.26257 -31.34310 37055 ft 537 kts 115°
2026-04-25 18:52 20.23057 -31.27062 37058 ft 536 kts 115°
2026-04-25 18:52 20.19875 -31.19864 37052 ft 536 kts 115°
2026-04-25 18:53 20.16701 -31.12694 37052 ft 536 kts 116°
2026-04-25 18:53 20.13522 -31.05519 37057 ft 536 kts 115°
2026-04-25 18:54 20.08759 -30.94787 37053 ft 536 kts 115°
2026-04-25 18:55 20.05574 -30.87625 37052 ft 536 kts 115°
2026-04-25 18:55 20.02369 -30.80425 37046 ft 536 kts 115°
2026-04-25 18:56 19.99200 -30.73315 37035 ft 536 kts 116°
2026-04-25 18:56 19.95998 -30.66140 37031 ft 535 kts 115°
2026-04-25 18:57 19.92792 -30.58968 37032 ft 535 kts 115°
2026-04-25 18:57 19.89613 -30.51863 37032 ft 535 kts 116°
2026-04-25 18:58 19.86419 -30.44733 37032 ft 535 kts 115°
2026-04-25 18:58 19.81624 -30.34047 37030 ft 534 kts 116°
2026-04-25 18:59 19.75241 -30.19857 37033 ft 533 kts 116°
2026-04-25 19:00 19.70438 -30.09205 37034 ft 533 kts 116°
2026-04-25 19:01 19.65638 -29.98577 37044 ft 532 kts 116°
2026-04-25 19:01 19.62433 -29.91494 37042 ft 532 kts 116°
2026-04-25 19:02 19.57611 -29.80852 37041 ft 532 kts 116°
2026-04-25 19:03 19.53888 -29.72651 37038 ft 531 kts 116°
2026-04-25 19:03 19.49611 -29.63244 37036 ft 530 kts 116°
2026-04-25 19:04 19.44806 -29.52692 37037 ft 530 kts 116°
2026-04-25 19:05 19.38404 -29.38667 37034 ft 529 kts 116°
2026-04-25 19:06 19.35213 -29.31687 37035 ft 528 kts 116°
2026-04-25 19:06 19.30414 -29.21211 37034 ft 528 kts 117°
2026-04-25 19:07 19.25610 -29.10740 37032 ft 527 kts 117°
2026-04-25 19:08 19.20793 -29.00261 37031 ft 526 kts 117°
2026-04-25 19:09 19.14942 -28.87559 37031 ft 525 kts 117°
2026-04-25 19:10 19.09614 -28.76015 37032 ft 524 kts 117°
2026-04-25 19:10 19.06413 -28.69091 37031 ft 524 kts 117°
2026-04-25 19:11 19.03216 -28.62186 37032 ft 524 kts 117°
2026-04-25 19:11 19.00019 -28.55287 37031 ft 524 kts 117°
2026-04-25 19:12 18.96812 -28.48376 37029 ft 524 kts 117°
2026-04-25 19:12 18.93607 -28.41476 37031 ft 524 kts 117°
2026-04-25 19:13 18.90385 -28.34549 37031 ft 523 kts 117°
2026-04-25 19:13 18.87185 -28.27676 37030 ft 523 kts 117°
2026-04-25 19:14 18.83977 -28.20794 37030 ft 523 kts 117°
2026-04-25 19:14 18.80765 -28.13913 37028 ft 523 kts 117°
2026-04-25 19:15 18.77543 -28.07019 37029 ft 523 kts 117°
2026-04-25 19:15 18.74338 -28.00167 37024 ft 522 kts 117°
2026-04-25 19:16 18.71140 -27.93340 37019 ft 522 kts 117°
2026-04-25 19:16 18.67915 -27.86463 37020 ft 521 kts 117°
2026-04-25 19:17 18.64711 -27.79638 37013 ft 521 kts 117°
2026-04-25 19:17 18.61491 -27.72789 37013 ft 521 kts 117°
2026-04-25 19:18 18.58282 -27.65968 37014 ft 520 kts 117°
2026-04-25 19:18 18.55055 -27.59119 37012 ft 520 kts 117°
2026-04-25 19:19 18.51843 -27.52310 37017 ft 520 kts 117°
2026-04-25 19:19 18.48643 -27.45532 37012 ft 520 kts 117°
2026-04-25 19:20 18.45405 -27.38685 37013 ft 519 kts 117°
2026-04-25 19:20 18.42193 -27.31897 37007 ft 519 kts 118°
2026-04-25 19:21 18.38980 -27.25116 37014 ft 518 kts 118°
2026-04-25 19:21 18.34142 -27.14920 37006 ft 519 kts 118°
2026-04-25 19:22 18.30919 -27.08139 36997 ft 519 kts 118°
2026-04-25 19:23 18.26083 -26.97974 36996 ft 518 kts 118°
2026-04-25 19:23 18.21243 -26.87820 36998 ft 518 kts 118°
2026-04-25 19:24 18.18017 -26.81060 36993 ft 517 kts 118°
2026-04-25 19:25 18.11516 -26.67464 36992 ft 517 kts 118°
2026-04-25 19:25 18.08273 -26.60693 36994 ft 516 kts 118°
2026-04-25 19:26 18.05042 -26.53954 37005 ft 523 kts 118°
2026-04-25 19:26 18.01722 -26.47038 37000 ft 531 kts 118°
2026-04-25 19:27 17.98957 -26.41283 37000 ft 536 kts 118°
2026-04-25 19:27 17.94993 -26.33042 37000 ft 542 kts 118°
2026-04-25 19:28 17.91581 -26.25956 36996 ft 543 kts 118°
2026-04-25 19:28 17.88171 -26.18881 36994 ft 544 kts 118°
2026-04-25 19:29 17.84759 -26.11811 36994 ft 544 kts 118°
2026-04-25 19:29 17.81336 -26.04725 36987 ft 544 kts 118°
2026-04-25 19:30 17.77781 -25.97693 36983 ft 543 kts 120°
2026-04-25 19:30 17.74173 -25.90761 36981 ft 543 kts 120°
2026-04-25 19:31 17.70560 -25.83826 36983 ft 543 kts 120°
2026-04-25 19:31 17.66948 -25.76899 36981 ft 543 kts 120°
2026-04-25 19:32 17.63335 -25.69977 36987 ft 542 kts 120°
2026-04-25 19:32 17.60920 -25.65354 36983 ft 541 kts 120°
2026-04-25 19:33 17.56093 -25.56124 36983 ft 541 kts 120°
2026-04-25 19:33 17.52474 -25.49213 36989 ft 541 kts 120°
2026-04-25 19:34 17.48854 -25.42307 36990 ft 541 kts 120°
2026-04-25 19:34 17.45234 -25.35406 36980 ft 541 kts 120°
2026-04-25 19:35 17.41592 -25.28474 36987 ft 541 kts 121°
2026-04-25 19:35 17.37958 -25.21561 36982 ft 540 kts 121°
2026-04-25 19:36 17.34348 -25.14702 36984 ft 541 kts 120°
2026-04-25 19:36 17.30702 -25.07781 36974 ft 540 kts 121°
2026-04-25 19:37 17.27073 -25.00902 36974 ft 541 kts 121°
2026-04-25 19:37 17.23467 -24.94071 36977 ft 540 kts 120°
2026-04-25 19:38 17.19817 -24.87164 36977 ft 540 kts 121°
2026-04-25 19:38 17.16183 -24.80294 36972 ft 540 kts 120°
2026-04-25 19:39 17.12572 -24.73477 36971 ft 540 kts 120°
2026-04-25 19:39 17.08894 -24.66539 36968 ft 540 kts 121°
2026-04-25 19:40 17.05263 -24.59697 36969 ft 540 kts 120°
2026-04-25 19:40 17.01611 -24.52821 36967 ft 540 kts 120°
2026-04-25 19:41 16.97966 -24.45966 36967 ft 540 kts 120°
2026-04-25 19:41 16.95538 -24.41405 36970 ft 539 kts 120°
2026-04-25 19:42 16.90671 -24.32269 36972 ft 539 kts 121°
2026-04-25 19:42 16.87006 -24.25396 36971 ft 539 kts 121°
2026-04-25 19:43 16.83341 -24.18531 36968 ft 539 kts 121°
2026-04-25 19:43 16.79700 -24.11719 36966 ft 539 kts 121°
2026-04-25 19:44 16.76039 -24.04874 36964 ft 539 kts 121°
2026-04-25 19:44 16.72398 -23.98076 36968 ft 539 kts 121°
2026-04-25 19:45 16.68754 -23.91276 36967 ft 539 kts 121°
2026-04-25 19:45 16.65100 -23.84466 36958 ft 538 kts 121°
2026-04-25 19:46 16.61443 -23.77658 36960 ft 539 kts 121°
2026-04-25 19:46 16.57767 -23.70821 36955 ft 539 kts 121°
2026-04-25 19:47 16.54106 -23.64017 36956 ft 538 kts 121°
2026-04-25 19:47 16.50453 -23.57237 36951 ft 538 kts 121°
2026-04-25 19:48 16.46789 -23.50440 36952 ft 537 kts 121°
2026-04-25 19:48 16.43145 -23.43688 36952 ft 537 kts 121°
2026-04-25 19:49 16.40690 -23.39145 36955 ft 537 kts 121°
2026-04-25 19:49 16.35820 -23.30136 36952 ft 537 kts 121°
2026-04-25 19:50 16.30328 -23.19993 36951 ft 536 kts 121°
2026-04-25 19:51 16.26650 -23.13206 36954 ft 536 kts 121°
2026-04-25 19:51 16.22973 -23.06430 36948 ft 536 kts 121°
2026-04-25 19:52 16.19306 -22.99678 36950 ft 536 kts 121°
2026-04-25 19:52 16.15643 -22.92940 36944 ft 536 kts 121°
2026-04-25 19:53 16.12006 -22.86202 36941 ft 536 kts 121°
2026-04-25 19:53 16.08411 -22.79424 36937 ft 536 kts 120°
2026-04-25 19:54 16.04804 -22.72632 36945 ft 536 kts 120°
2026-04-25 19:54 16.01199 -22.65852 36949 ft 536 kts 120°
2026-04-25 19:55 15.97601 -22.59092 36938 ft 536 kts 120°
2026-04-25 19:55 15.93979 -22.52292 36940 ft 536 kts 120°
2026-04-25 19:56 15.90372 -22.45528 36935 ft 536 kts 120°
2026-04-25 19:56 15.86773 -22.38784 36939 ft 535 kts 120°
2026-04-25 19:57 15.83158 -22.32017 36935 ft 535 kts 121°
2026-04-25 19:57 15.79550 -22.25271 36932 ft 534 kts 121°
2026-04-25 19:58 15.75959 -22.18561 36931 ft 534 kts 121°
2026-04-25 19:58 15.72366 -22.11854 36933 ft 533 kts 121°
2026-04-25 19:59 15.68764 -22.05139 36929 ft 534 kts 121°
2026-04-25 19:59 15.65142 -21.98390 36928 ft 534 kts 121°
2026-04-25 20:00 15.61523 -21.91653 36931 ft 533 kts 121°
2026-04-25 20:00 15.57896 -21.84908 36928 ft 533 kts 121°
2026-04-25 20:01 15.52467 -21.74821 36924 ft 533 kts 121°
2026-04-25 20:01 15.48875 -21.68157 36917 ft 533 kts 121°
2026-04-25 20:02 15.45240 -21.61418 36926 ft 533 kts 121°
2026-04-25 20:02 15.41631 -21.54734 36924 ft 532 kts 121°
2026-04-25 20:03 15.38038 -21.48084 36927 ft 532 kts 121°
2026-04-25 20:03 15.34419 -21.41393 36926 ft 532 kts 121°
2026-04-25 20:04 15.30785 -21.34681 36923 ft 532 kts 121°
2026-04-25 20:04 15.27168 -21.28006 36918 ft 531 kts 121°
2026-04-25 20:05 15.23541 -21.21317 36917 ft 531 kts 121°
2026-04-25 20:05 15.19925 -21.14656 36918 ft 531 kts 121°
2026-04-25 20:06 15.16319 -21.08019 36914 ft 531 kts 121°
2026-04-25 20:06 15.12696 -21.01356 36909 ft 531 kts 121°
2026-04-25 20:07 15.09074 -20.94700 36908 ft 531 kts 121°
2026-04-25 20:07 15.05446 -20.88038 36906 ft 530 kts 121°
2026-04-25 20:08 15.01839 -20.81423 36908 ft 530 kts 121°
2026-04-25 20:08 14.98196 -20.74747 36910 ft 530 kts 121°
2026-04-25 20:09 14.94585 -20.68134 36908 ft 530 kts 120°
2026-04-25 20:09 14.90972 -20.61525 36908 ft 530 kts 121°
2026-04-25 20:10 14.87324 -20.54855 36905 ft 529 kts 120°
2026-04-25 20:10 14.83704 -20.48243 36900 ft 529 kts 120°
2026-04-25 20:11 14.80088 -20.41645 36893 ft 529 kts 121°
2026-04-25 20:11 14.76441 -20.34996 36902 ft 528 kts 120°
2026-04-25 20:12 14.72827 -20.28412 36899 ft 527 kts 121°
2026-04-25 20:12 14.70410 -20.24010 36896 ft 527 kts 120°
2026-04-25 20:13 14.67908 -20.18262 36894 ft 528 kts 109°
2026-04-25 20:13 14.66751 -20.14642 36891 ft 529 kts 108°
2026-04-25 20:13 14.64440 -20.07415 36884 ft 529 kts 108°
2026-04-25 20:14 14.62135 -20.00217 36886 ft 529 kts 109°
2026-04-25 20:14 14.59819 -19.92996 36889 ft 529 kts 108°
2026-04-25 20:15 14.57514 -19.85817 36895 ft 528 kts 108°
2026-04-25 20:15 14.55197 -19.78609 36898 ft 528 kts 108°
2026-04-25 20:16 14.52890 -19.71442 36899 ft 528 kts 108°
2026-04-25 20:16 14.50565 -19.64226 36895 ft 528 kts 108°
2026-04-25 20:17 14.48253 -19.57060 36891 ft 528 kts 108°
2026-04-25 20:17 14.45920 -19.49837 36899 ft 528 kts 108°
2026-04-25 20:18 14.43591 -19.42636 36895 ft 528 kts 108°
2026-04-25 20:18 14.41272 -19.35471 36894 ft 528 kts 108°
2026-04-25 20:19 14.38939 -19.28273 36891 ft 528 kts 108°
2026-04-25 20:19 14.36597 -19.21058 36895 ft 527 kts 108°
2026-04-25 20:20 14.34272 -19.13903 36891 ft 528 kts 109°
2026-04-25 20:20 14.31923 -19.06680 36885 ft 528 kts 108°
2026-04-25 20:21 14.29587 -18.99507 36887 ft 528 kts 108°
2026-04-25 20:21 14.27242 -18.92316 36882 ft 528 kts 108°
2026-04-25 20:22 14.25695 -18.87577 36887 ft 527 kts 108°
2026-04-25 20:22 14.22568 -18.78003 36884 ft 527 kts 108°
2026-04-25 20:23 14.20228 -18.70851 36884 ft 527 kts 108°
2026-04-25 20:23 14.17886 -18.63701 36881 ft 526 kts 108°
2026-04-25 20:24 14.15540 -18.56545 36879 ft 527 kts 108°
2026-04-25 20:24 14.13193 -18.49395 36879 ft 527 kts 108°
2026-04-25 20:25 14.10851 -18.42269 36877 ft 527 kts 108°
2026-04-25 20:25 14.08499 -18.35121 36875 ft 527 kts 108°
2026-04-25 20:26 14.06172 -18.28054 36263 ft 512 kts 108°
2026-04-25 20:26 14.05029 -18.24588 35865 ft 512 kts 108°
2026-04-25 20:26 14.03877 -18.21094 35873 ft 515 kts 108°
2026-04-25 20:27 14.01552 -18.14050 35865 ft 523 kts 108°
2026-04-25 20:27 13.99219 -18.06990 35869 ft 521 kts 108°
2026-04-25 20:28 13.98073 -18.03527 35870 ft 502 kts 108°
2026-04-25 20:28 13.96955 -18.00151 35867 ft 489 kts 108°
2026-04-25 20:28 13.95352 -17.93397 35863 ft 490 kts 94°
2026-04-25 20:29 13.95479 -17.89892 35885 ft 487 kts 75°
2026-04-25 20:29 13.96656 -17.86710 35870 ft 480 kts 55°
2026-04-25 20:29 14.00558 -17.81129 35849 ft 480 kts 50°
2026-04-25 20:30 14.04503 -17.75580 35855 ft 481 kts 50°
2026-04-25 20:30 14.08470 -17.69999 35852 ft 481 kts 50°
2026-04-25 20:31 14.12427 -17.64432 35856 ft 481 kts 50°
2026-04-25 20:31 14.16423 -17.58892 35853 ft 478 kts 45°
2026-04-25 20:32 14.18905 -17.56727 35873 ft 466 kts 26°
2026-04-25 20:32 14.21942 -17.55569 35861 ft 454 kts
2026-04-25 20:32 14.25054 -17.55590 35854 ft 443 kts 345°
2026-04-25 20:32 14.27874 -17.56730 35856 ft 434 kts 324°
2026-04-25 20:33 14.30061 -17.58824 35856 ft 430 kts 304°
2026-04-25 20:33 14.31327 -17.61588 35855 ft 430 kts 284°
2026-04-25 20:33 14.31499 -17.64661 35850 ft 434 kts 264°
2026-04-25 20:33 14.30972 -17.66697 35851 ft 439 kts 250°
2026-04-25 20:34 14.28546 -17.70090 35856 ft 453 kts 223°
2026-04-25 20:34 14.25770 -17.71709 35858 ft 465 kts 204°
2026-04-25 20:34 14.19670 -17.73984 35843 ft 464 kts 210°
2026-04-25 20:35 14.14230 -17.77447 35849 ft 456 kts 223°
2026-04-25 20:35 14.09714 -17.82027 35858 ft 450 kts 235°
2026-04-25 20:36 14.06003 -17.87176 35859 ft 449 kts 237°
2026-04-25 20:36 14.02314 -17.92368 35861 ft 449 kts 237°
2026-04-25 20:37 13.98631 -17.97551 35868 ft 450 kts 237°
2026-04-25 20:37 13.95369 -18.02966 35873 ft 442 kts 252°
2026-04-25 20:38 13.94131 -18.09121 35761 ft 439 kts 269°
2026-04-25 20:38 13.94201 -18.12260 35429 ft 439 kts 277°
2026-04-25 20:38 13.94726 -18.15314 35059 ft 437 kts 285°
2026-04-25 20:39 13.95708 -18.18284 34653 ft 435 kts 294°
2026-04-25 20:39 13.97111 -18.21052 34232 ft 434 kts 302°
2026-04-25 20:39 13.98903 -18.23566 33805 ft 434 kts 310°
2026-04-25 20:39 13.99570 -18.24327 33666 ft 434 kts 312°
2026-04-25 20:40 14.03462 -18.27605 32969 ft 436 kts 326°
2026-04-25 20:40 14.06138 -18.29050 32568 ft 435 kts 334°
2026-04-25 20:40 14.08985 -18.30163 32153 ft 434 kts 340°
2026-04-25 20:40 14.11955 -18.30847 31739 ft 435 kts 349°
2026-04-25 20:41 14.14970 -18.31014 31321 ft 437 kts 358°
2026-04-25 20:41 14.18044 -18.30649 30901 ft 439 kts
2026-04-25 20:41 14.20949 -18.29770 30491 ft 442 kts 17°
2026-04-25 20:41 14.23719 -18.28363 30070 ft 445 kts 27°
2026-04-25 20:42 14.26228 -18.26456 29649 ft 447 kts 37°
2026-04-25 20:42 14.28376 -18.24109 29227 ft 450 kts 47°
2026-04-25 20:42 14.30256 -18.21516 28789 ft 447 kts 48°
2026-04-25 20:42 14.32244 -18.19109 28367 ft 441 kts 44°
2026-04-25 20:43 14.34299 -18.16756 27942 ft 437 kts 44°
2026-04-25 20:43 14.36344 -18.14437 27401 ft 436 kts 44°
2026-04-25 20:43 14.38383 -18.12140 26800 ft 430 kts 44°
2026-04-25 20:43 14.40411 -18.09877 26141 ft 426 kts 44°
2026-04-25 20:44 14.42423 -18.07659 25453 ft 422 kts 44°
2026-04-25 20:44 14.44417 -18.05488 24779 ft 418 kts 44°
2026-04-25 20:44 14.46415 -18.03329 24185 ft 413 kts 44°
2026-04-25 20:44 14.48392 -18.01213 23917 ft 405 kts 44°
2026-04-25 20:45 14.50114 -17.98866 23878 ft 411 kts 61°
2026-04-25 20:45 14.50972 -17.96042 23869 ft 415 kts 82°
2026-04-25 20:45 14.50854 -17.93121 23634 ft 407 kts 102°
2026-04-25 20:45 14.49792 -17.90400 23003 ft 407 kts 121°
2026-04-25 20:46 14.48276 -17.87968 22367 ft 405 kts 124°
2026-04-25 20:46 14.46711 -17.85541 21791 ft 402 kts 124°
2026-04-25 20:46 14.45165 -17.83141 21175 ft 400 kts 124°
2026-04-25 20:46 14.43630 -17.80757 20610 ft 397 kts 124°
2026-04-25 20:47 14.42120 -17.78404 20027 ft 394 kts 124°
2026-04-25 20:47 14.40607 -17.76042 19383 ft 393 kts 124°
2026-04-25 20:47 14.39092 -17.73672 18520 ft 399 kts 124°
2026-04-25 20:47 14.37589 -17.71314 17742 ft 400 kts 124°
2026-04-25 20:48 14.36057 -17.68913 17000 ft 401 kts 124°
2026-04-25 20:48 14.34533 -17.66515 16327 ft 398 kts 124°
2026-04-25 20:48 14.33017 -17.64124 16036 ft 396 kts 124°
2026-04-25 20:48 14.31507 -17.61739 15969 ft 396 kts 124°
2026-04-25 20:49 14.29991 -17.59346 15977 ft 397 kts 124°
2026-04-25 20:49 14.28471 -17.56950 15983 ft 398 kts 124°
2026-04-25 20:49 14.26949 -17.54554 15988 ft 398 kts 124°
2026-04-25 20:49 14.25444 -17.52180 15985 ft 398 kts 124°
2026-04-25 20:50 14.23919 -17.49778 15992 ft 398 kts 124°
2026-04-25 20:50 14.22380 -17.47362 15993 ft 397 kts 124°
2026-04-25 20:50 14.20904 -17.45045 15976 ft 377 kts 124°
2026-04-25 20:50 14.19493 -17.42827 15558 ft 370 kts 124°
2026-04-25 20:51 14.18100 -17.40630 15291 ft 354 kts 124°
2026-04-25 20:51 14.16780 -17.38545 14912 ft 344 kts 124°
2026-04-25 20:51 14.15487 -17.36496 14367 ft 341 kts 124°
2026-04-25 20:51 14.14130 -17.34526 13798 ft 335 kts 134°
2026-04-25 20:52 14.12279 -17.33131 13325 ft 326 kts 152°
2026-04-25 20:52 14.10940 -17.32403 13015 ft 321 kts 154°
2026-04-25 20:52 14.08353 -17.30927 12405 ft 314 kts 143°
2026-04-25 20:52 14.06985 -17.29221 11884 ft 315 kts 118°
2026-04-25 20:53 14.06065 -17.27155 11323 ft 314 kts 114°
2026-04-25 20:53 14.05210 -17.25100 10763 ft 312 kts 114°
2026-04-25 20:53 14.04356 -17.23048 10211 ft 309 kts 114°
2026-04-25 20:53 14.03502 -17.21023 9667 ft 306 kts 114°
2026-04-25 20:54 14.02650 -17.19029 9106 ft 304 kts 114°
2026-04-25 20:54 14.02074 -17.16962 8537 ft 301 kts 95°
2026-04-25 20:54 14.02218 -17.14841 7986 ft 297 kts 75°
2026-04-25 20:54 14.03029 -17.12893 7448 ft 292 kts 57°
2026-04-25 20:55 14.04379 -17.11352 6875 ft 289 kts 38°
2026-04-25 20:55 14.06120 -17.10359 6379 ft 283 kts 19°
2026-04-25 20:55 14.08005 -17.09962 6124 ft 270 kts
2026-04-25 20:55 14.09849 -17.09779 5862 ft 258 kts
2026-04-25 20:56 14.11674 -17.09597 5839 ft 263 kts
2026-04-25 20:56 14.13504 -17.09413 5845 ft 263 kts
2026-04-25 20:56 14.15329 -17.09230 5848 ft 263 kts
2026-04-25 20:56 14.17178 -17.09045 5847 ft 263 kts
2026-04-25 20:57 14.19019 -17.08861 5859 ft 264 kts
2026-04-25 20:57 14.20839 -17.08679 5847 ft 263 kts
2026-04-25 20:57 14.22699 -17.08493 5842 ft 263 kts
2026-04-25 20:57 14.24515 -17.08311 5802 ft 256 kts
2026-04-25 20:58 14.26272 -17.08136 5403 ft 256 kts
2026-04-25 20:58 14.28065 -17.07956 4976 ft 255 kts
2026-04-25 20:58 14.29824 -17.07781 4831 ft 253 kts
2026-04-25 20:58 14.31598 -17.07604 4832 ft 255 kts
2026-04-25 20:59 14.33368 -17.07427 4834 ft 255 kts
2026-04-25 20:59 14.35144 -17.07250 4920 ft 255 kts
2026-04-25 20:59 14.36922 -17.07073 4959 ft 256 kts
2026-04-25 20:59 14.38733 -17.07006 4969 ft 256 kts 360°
2026-04-25 21:00 14.40483 -17.07029 4768 ft 248 kts 359°
2026-04-25 21:00 14.41053 -17.07036 4644 ft 247 kts 360°
2026-04-25 21:00 14.45554 -17.07080 3968 ft 227 kts
2026-04-25 21:01 14.47129 -17.07094 3765 ft 228 kts
2026-04-25 21:01 14.48714 -17.07109 3466 ft 222 kts
2026-04-25 21:01 14.50203 -17.07124 3182 ft 202 kts
2026-04-25 21:01 14.51549 -17.07137 2944 ft 186 kts
2026-04-25 21:02 14.52823 -17.07149 2709 ft 180 kts
2026-04-25 21:02 14.54072 -17.07160 2474 ft 176 kts
2026-04-25 21:02 14.55276 -17.07172 2249 ft 167 kts
2026-04-25 21:02 14.56427 -17.07182 2032 ft 162 kts
2026-04-25 21:03 14.57548 -17.07193 1838 ft 156 kts
2026-04-25 21:03 14.58620 -17.07203 1629 ft 150 kts
2026-04-25 21:03 14.59656 -17.07213 1432 ft 143 kts 360°
2026-04-25 21:03 14.60600 -17.07222 1274 ft 128 kts 360°
2026-04-25 21:04 14.61503 -17.07231 1088 ft 128 kts 359°
2026-04-25 21:04 14.62393 -17.07240 898 ft 128 kts 359°
2026-04-25 21:04 14.63284 -17.07259 744 ft 127 kts 359°
2026-04-25 21:04 14.64184 -17.07265 579 ft 128 kts 359°
2026-04-25 21:05 14.65081 -17.07265 429 ft 128 kts 359°
2026-04-25 21:05 14.65976 -17.07270 306 ft 123 kts 358°
2026-04-25 21:05 14.66704 -17.07279 302 ft 74 kts 360°
2026-04-25 21:05 14.67054 -17.07253 302 ft 25 kts 39°
2026-04-25 21:06 14.67077 -17.07155 300 ft 6 kts 89°
2026-04-25 21:06 14.67078 -17.07133 299 ft 1 kts 89°
2026-04-25 21:06 14.67087 -17.07105 299 ft 6 kts 41°
2026-04-25 21:06 14.67122 -17.07090 298 ft 9 kts 359°
2026-04-25 21:07 14.67217 -17.07092 297 ft 12 kts 359°
2026-04-25 21:07 14.67316 -17.07093 295 ft 16 kts 359°
2026-04-25 21:07 14.67437 -17.07094 293 ft 18 kts 360°
2026-04-25 21:07 14.67529 -17.07071 291 ft 12 kts 68°
2026-04-25 21:08 14.67537 -17.07006 290 ft 6 kts 67°
2026-04-25 21:08 14.67577 -17.06982 288 ft 8 kts
2026-04-25 21:08 14.67649 -17.06983 287 ft 11 kts 359°
2026-04-25 21:08 14.67739 -17.06983 284 ft 6 kts
2026-04-25 21:09 14.67775 -17.06936 282 ft 5 kts 98°
2026-04-25 21:09 14.67775 -17.06885 281 ft 6 kts 90°
2026-04-25 21:09 14.67775 -17.06873 280 ft 0 kts 90°